WA8KWD Weather Reports


time (UTC)temp
C
wind
direction
speed
KPH
gust
KPH
rain 1hr
cm
rain 24hr
cm
rain mn
cm
humidity
%
barometer
mb
20260508094512 6 241 0.0 0.0 0.00 0.00 0.00 46 1015.0
20260508093010 6 243 0.0 3.2 0.00 0.00 0.00 49 1015.0
20260508091512 6 160 1.6 3.2 0.00 0.00 0.00 44 1014.7
20260508090010 6 155 0.0 0.0 0.00 0.00 0.00 44 1015.0
20260508084507 6 193 0.0 0.0 0.00 0.00 0.00 43 1014.8
20260508083006 6 193 0.0 0.0 0.00 0.00 0.00 42 1015.0
20260508081504 6 196 0.0 1.6 0.00 0.00 0.00 45 1015.1
20260508080001 6 209 0.0 1.6 0.00 0.00 0.00 44 1015.1
20260508074501 6 159 0.0 0.0 0.00 0.00 0.00 47 1015.2
20260508073101 6 159 0.0 1.6 0.00 0.00 0.00 43 1015.0
20260508071600 6 210 0.0 0.0 0.00 0.00 0.00 48 1015.2
20260508070058 6 263 0.0 1.6 0.00 0.00 0.00 38 1015.5
20260508064559 6 151 0.0 0.0 0.00 0.00 0.00 48 1015.4
20260508063055 6 152 0.0 0.0 0.00 0.00 0.00 54 1015.3
20260508061553 6 152 0.0 0.0 0.00 0.00 0.00 47 1015.3
20260508060050 6 152 0.0 0.0 0.00 0.00 0.00 55 1015.2
20260508054549 6 152 0.0 0.0 0.00 0.00 0.00 59 1015.3
20260508053053 7 152 0.0 1.6 0.00 0.00 0.00 61 1015.4
20260508051549 7 296 0.0 0.0 0.00 0.00 0.00 63 1015.4
20260508050051 7 296 0.0 0.0 0.00 0.00 0.00 64 1015.6
20260508044543 7 298 0.0 0.0 0.00 0.00 0.00 64 1015.7
20260508043039 7 298 0.0 0.0 0.00 0.00 0.00 64 1015.7
20260508041537 7 298 0.0 0.0 0.00 0.00 0.00 64 1015.7
20260508040048 6 298 0.0 0.0 0.00 0.00 0.00 64 1015.6
20260508034539 6 298 0.0 0.0 0.00 0.00 0.00 64 1015.6
20260508033025 6 298 0.0 0.0 0.00 0.00 0.00 64 1015.5
20260508031522 7 298 0.0 0.0 0.00 0.00 0.00 64 1015.3
20260508030016 6 298 0.0 0.0 0.00 0.00 0.00 65 1015.3
20260508024521 6 310 0.0 0.0 0.00 0.00 0.00 63 1015.4
20260508023010 7 310 0.0 0.0 0.00 0.00 0.00 61 1015.3
20260508021504 7 310 0.0 0.0 0.00 0.00 0.00 62 1015.3
20260508020100 7 310 0.0 0.0 0.00 0.00 0.00 61 1015.4
20260508014555 7 310 0.0 0.0 0.00 0.00 0.00 61 1015.2
20260508013050 7 311 0.0 0.0 0.00 0.00 0.00 58 1015.1
20260508011546 8 311 0.0 0.0 0.00 0.00 0.00 56 1014.9
20260508010041 8 311 0.0 0.0 0.00 0.00 0.00 53 1014.8
20260508004541 9 311 0.0 0.0 0.00 0.00 0.00 52 1014.7
20260508003033 10 311 0.0 0.0 0.00 0.00 0.00 51 1014.6
20260508001530 10 311 1.6 6.4 0.00 0.00 0.00 48 1014.6
20260508000024 11 315 3.2 11.3 0.00 0.00 0.00 47 1014.3
20260507234529 11 309 0.0 8.0 0.00 0.00 0.00 47 1014.1
20260507233019 11 311 3.2 8.0 0.00 0.00 0.00 47 1014.1
20260507231511 11 312 1.6 11.3 0.00 0.00 0.00 46 1014.1
20260507230013 12 233 0.0 6.4 0.00 0.00 0.00 48 1014.2
20260507224502 12 293 8.0 17.7 0.00 0.00 0.00 48 1014.2
20260507223110 12 231 1.6 19.3 0.00 0.00 0.00 49 1014.2
20260507221554 11 284 3.2 19.3 0.00 0.00 0.00 51 1014.3
20260507220048 12 295 8.0 25.7 0.00 0.00 0.00 49 1014.0
20260507214547 12 238 4.8 24.1 0.00 0.00 0.00 48 1013.8
20260507213042 12 305 9.7 16.1 0.00 0.00 0.00 50 1013.7
20260507211545 13 264 4.8 14.5 0.00 0.00 0.00 48 1013.4
20260507210036 13 277 6.4 20.9 0.00 0.00 0.00 50 1013.2
20260507204525 13 281 0.0 17.7 0.00 0.00 0.00 50 1013.2
20260507203022 13 250 6.4 12.9 0.00 0.00 0.00 45 1013.0
20260507201517 13 243 1.6 17.7 0.00 0.00 0.00 52 1013.1
20260507200014 13 268 9.7 19.3 0.00 0.00 0.00 47 1013.0
20260507194525 13 229 1.6 9.7 0.00 0.00 0.00 52 1013.3
20260507193004 13 314 9.7 19.3 0.00 0.00 0.00 48 1013.5
20260507191503 13 334 3.2 12.9 0.00 0.00 0.00 50 1013.6
20260507190113 13 328 8.0 14.5 0.00 0.00 0.00 47 1013.6
20260507184554 13 309 6.4 17.7 0.00 0.00 0.00 45 1013.6
20260507183111 13 248 3.2 9.7 0.00 0.00 0.00 45 1013.5
20260507181546 13 278 1.6 14.5 0.00 0.00 0.00 53 1013.6
20260507180042 13 302 4.8 19.3 0.00 0.00 0.00 50 1013.7
20260507174537 13 234 11.3 20.9 0.00 0.00 0.00 44 1013.7
20260507173043 13 248 1.6 9.7 0.00 0.00 0.00 51 1013.9
20260507171527 13 285 4.8 14.5 0.00 0.00 0.00 54 1014.1
20260507170023 13 245 4.8 11.3 0.00 0.00 0.00 47 1014.2
20260507164523 12 247 0.0 9.7 0.00 0.00 0.00 48 1014.3
20260507163017 13 240 1.6 9.7 0.00 0.00 0.00 46 1014.3
20260507161510 12 315 4.8 11.3 0.00 0.00 0.00 47 1014.4
20260507160006 12 224 1.6 11.3 0.00 0.00 0.00 49 1014.4
20260507154503 12 197 1.6 8.0 0.00 0.00 0.00 53 1014.5
20260507153058 12 231 0.0 6.4 0.00 0.00 0.00 51 1014.5
20260507151553 12 245 0.0 4.8 0.00 0.00 0.00 50 1014.6
20260507150050 12 233 0.0 6.4 0.00 0.00 0.00 52 1014.7
20260507144543 11 307 4.8 9.7 0.00 0.03 0.00 57 1014.8
20260507143042 11 241 1.6 8.0 0.00 0.03 0.00 58 1014.8
20260507141535 10 244 0.0 3.2 0.00 0.03 0.00 58 1015.0
20260507140030 10 240 0.0 6.4 0.00 0.03 0.00 58 1015.2
20260507134526 10 234 1.6 8.0 0.00 0.03 0.00 58 1015.5
20260507133025 9 239 0.0 4.8 0.00 0.03 0.00 52 1015.5
20260507131519 8 233 0.0 0.0 0.00 0.03 0.00 26 1015.5
20260507130012 7 240 0.0 1.6 0.00 0.03 0.00 4 1015.5
20260507124513 7 225 0.0 4.8 0.00 0.03 0.00 1 1015.6
20260507123010 6 170 0.0 0.0 0.00 0.03 0.00 1 1015.6
20260507121512 5 212 0.0 0.0 0.00 0.03 0.00 1 1015.5
20260507120009 5 167 0.0 0.0 0.00 0.08 0.00 1 1015.5
20260507114504 4 350 0.0 0.0 0.00 0.08 0.00 1 1015.4
20260507113130 3 350 0.0 0.0 0.00 0.08 0.00 1 1015.4
20260507111559 3 350 0.0 0.0 0.00 0.08 0.00 1 1015.3
20260507110057 3 350 0.0 0.0 0.00 0.08 0.00 1 1015.2
20260507104555 2 350 0.0 1.6 0.00 0.13 0.00 1 1015.1
20260507103053 2 352 0.0 0.0 0.00 0.13 0.00 1 1015.1
20260507101547 2 353 0.0 0.0 0.00 0.13 0.00 1 1015.1
20260507100039 1 353 0.0 0.0 0.00 0.13 0.00 1 1014.9